Location: Memmingen
(47.9830°N, 10.1733°E)
Time: 21:29:41
(UTC+01:00)

ISS - Pass Details

Date: 12 November 2017
Orbit: 402 x 407 km, 51.6° (Epoch: 24 November)

Event Time Altitude Azimuth Distance (km) Brightness Sun altitude
Exits shadow 05:52:30 32° 301° (WNW) 719 -3.1 -14.9°
Maximum altitude 05:53:51 73° 20° (NNE) 425 -3.8 -14.7°
Drops below altitude 10° 05:57:06 10° 106° (ESE) 1,453 0.4 -14.1°
Sets 05:59:11 0° 108° (ESE) 2,311 1.9 -13.8°
